Regional Weather Roundup
Issued by NWS

Home | Current Version | Previous Version | Graphics & Text | Print | Product List | Glossary On
Versions: 1 2 3 4 5 6 7 8 9 10 11 12 13 14 15 16 17 18 19 20 21 22 23 24 25 26 27 28 29 30 31 32 33 34 35 36 37 38 39 40 41 42 43 44 45 46 47 48 49 50
000
ASUS43 KDTX 231910
RWRMI
MICHIGAN HOURLY REGIONAL WEATHER ROUNDUP
NATIONAL WEATHER SERVICE DETROIT/PONTIAC MI
300 PM EDT TUE MAY 23 2017

NOTE: "FAIR" INDICATES FEW OR NO CLOUDS BELOW 12,000 FEET WITH NO
SIGNIFICANT WEATHER AND/OR OBSTRUCTION TO VISIBILITY.

MIZ047>049-052>055-059>063-066>070-074>076-081>083-232000-
SOUTHEAST LOWER MICHIGAN

CITY           SKY/WX    TMP DP  RH WIND       PRES   REMARKS
ADRIAN         MOSUNNY   72  49  44 S8        29.77F
ALMA           CLOUDY    67  54  63 SW9G23    29.78F
ANN ARBOR      MOSUNNY   71  50  47 S9        29.78F
BAD AXE        CLOUDY    65  52  61 S7        29.80F
CARO           CLOUDY    65  56  71 S10       29.79F
DETROIT CITY   CLOUDY    72  51  47 S8G15     29.78F
DETROIT        PTSUNNY   72  50  45 SE8       29.78F
FLINT          CLOUDY    66  53  63 W6        29.80F
GROSSE ILE     CLOUDY    69  48  46 S3        29.78F
HILLSDALE      CLOUDY    70  46  43 S3        29.77F
HOWELL         CLOUDY    67  50  54 CALM      29.79F

CITY           SKY/WX    TMP DP  RH WIND       PRES   REMARKS
JACKSON        PTSUNNY   71  52  50 N7        29.78F
LAMBERTVILLE   SUNNY     73  48  42 E6        29.76F
LANSING        CLOUDY    69  50  50 SW7       29.80F
LAPEER         CLOUDY    69  49  49 NW5       29.80F
MASON          CLOUDY    65  55  67 NW5       29.79F
MONROE         MOSUNNY   71  49  45 E5        29.77F
MT. CLEMENS    PTSUNNY   72  55  54 E8        29.77F
PONTIAC        CLOUDY    68  51  54 NW6       29.78F
PORT HOPE        N/A     56  53  90 E8        29.79F
PORT HURON     CLOUDY    72  45  37 SW7       29.79F
TRI CITIES       N/A     69  52  54 S13       29.77F
MIDLAND        CLOUDY    64  55  73 NE3       29.77F
TROY           PTSUNNY   72  44  36 CALM      29.80F
SAGINAW HB     CLOUDY    70  50  49 S12       29.78F
$$
MIZ043>046-050>051-056>058-064>065-071>073-077>080-232000-
SOUTHWEST LOWER MICHIGAN

CITY           SKY/WX    TMP DP  RH WIND       PRES   REMARKS
BATTLE CREEK   LGT RAIN  63  54  72 NW8       29.80F
BENTON HARBOR  CLOUDY    62  54  74 CALM      29.78F
BIG RAPIDS       N/A     65  52  63 S5        29.75
COLDWATER      CLOUDY    69  52  56 N7        29.77F
FREMONT        CLOUDY    62  52  68 SW9       29.77F
HOLLAND        CLOUDY    61  56  83 SW8       29.79F
GRAND RAPIDS   LGT RAIN  61  57  87 W10       29.79F
IONIA          DRIZZLE   63  57  80 W9        29.79F
KALAMAZOO      LGT RAIN  63  55  75 NW7       29.80F
LUDINGTON      CLOUDY    56  53  89 SW9       29.77F
MARSHALL       CLOUDY    67  50  54 W6        29.78F
MOUNT PLEASANT CLOUDY    66  53  63 SW9       29.76F
MUSKEGON       CLOUDY    63  53  70 SW12      29.78F
SOUTH HAVEN    DRIZZLE   61  56  85 CALM      29.79F
$$
MIZ016>042-232000-
NORTHERN LOWER MICHIGAN

CITY           SKY/WX    TMP DP  RH WIND       PRES   REMARKS
ALPENA         PTSUNNY   62  49  62 E6        29.81S
BEAVER ISLAND  MOSUNNY   61  42  50 NE6       29.82S
BELLAIRE       CLOUDY    64  47  55 N5        29.77S
CADILLAC       PTSUNNY   67  50  54 W6        29.76S
CHARLEVOIX     CLOUDY    51  45  81 N7        29.83S
FRANKFORT      CLOUDY    62  51  67 N6        29.77F
GAYLORD        CLOUDY    66  47  50 NE7       29.77F
GRAYLING       CLOUDY    63  54  73 CALM      29.77F
HARBOR SPRINGS PTSUNNY   55  47  75 SW3       29.79F
HOUGHTON LAKE  MOSUNNY   66  49  54 NW5       29.76F
MANISTEE       CLOUDY    61  55  81 W7        29.76F
OSCODA         CLOUDY    59  51  77 NE9       29.79F
PELLSTON       PTSUNNY   61  45  55 E5        29.81F
ROGERS CITY    CLOUDY    48  47  95 NE3       29.83F
TRAVERSE CITY  CLOUDY    55  45  68 NE7       29.78F
$$
MIZ007>008-015-232000-
EASTERN UPPER MICHIGAN

CITY           SKY/WX    TMP DP  RH WIND       PRES   REMARKS
KINROSS        CLOUDY    61  46  57 NW8       29.81F
MACKINAC ISLAN CLOUDY    55  48  76 CALM      29.81F
NEWBERRY       CLOUDY    58  48  71 N10       29.81F
S. S. MARIE    MOSUNNY   62  48  60 VRB6      29.80F
MUNISING         N/A     48  44  86 NE9       29.84F
$$
MIZ004>006-011>014-085-232000-
CENTRAL UPPER MICHIGAN

CITY           SKY/WX    TMP DP  RH WIND       PRES   REMARKS
MANISTIQUE     CLOUDY    56  42  61 CALM      29.82S
ESCANABA       CLOUDY    56  46  69 NE7       29.82F
MENOMINEE      LGT RAIN  50  46  86 NE9       29.82F
SAWYER-GWINN   CLOUDY    54  46  76 NE10      29.83F
$$
MIZ001>003-009>011-084-232000-
WESTERN UPPER MICHIGAN

CITY           SKY/WX    TMP DP  RH WIND       PRES   REMARKS
IRON MOUNTAIN  CLOUDY    56  42  59 S5        29.80F
HOUGHTON       CLOUDY    56  45  66 E5        29.84F
COPPER HARBOR    N/A     42  39  89 NE3       29.88S
IRONWOOD       CLOUDY    56  45  66 N13       29.85S
$$

ABBREVIATIONS USED IN REMARKS
   TC - TEMPERATURE IN CELSIUS
  WCI - WIND CHILL INDEX
   HX - HEAT INDEX
  VSB - VISIBILITY





USA.gov is the U.S. government's official web portal to all federal, state and local government web resources and services.